QPF
0.02 0.02 0.02 0.03 0.03 0.04 0.05 0.05 0.06 0.06 0.05 0.05 0.05 0.04 0.04 0.04 0.04 0.05 0.05 0.06 0.06 0.06 0.07 0.08 0.11 0.14 0.16 0.17 0.19 0.20 0.18 0.16 0.15 0.15 0.15 0.14 0.13 0.12
0.02 0.02 0.02 0.02 0.03 0.04 0.04 0.05 0.06 0.06 0.05 0.04 0.05 0.04 0.04 0.04 0.05 0.04 0.04 0.05 0.04 0.04 0.04 0.05 0.06 0.08 0.09 0.10 0.10 0.11 0.12 0.12 0.12 0.11 0.11 0.11 0.10 0.10
0.02 0.03 0.03 0.03 0.04 0.04 0.04 0.04 0.05 0.07 0.05 0.05 0.05 0.05 0.04 0.05 0.05 0.05 0.04 0.04 0.03 0.03 0.03 0.04 0.04 0.04 0.04 0.04 0.04 0.05 0.06 0.06 0.06 0.06 0.06 0.06 0.07 0.09
0.02 0.03 0.04 0.03 0.03 0.04 0.04 0.04 0.06 0.06 0.06 0.05 0.05 0.05 0.04 0.05 0.06 0.06 0.05 0.04 0.03 0.03 0.03 0.03 0.04 0.03 0.02 0.02 0.01 0.02 0.02 0.03 0.03 0.04 0.04 0.05 0.05 0.07
0.02 0.02 0.03 0.03 0.03 0.03 0.04 0.04 0.04 0.04 0.04 0.04 0.04 0.04 0.04 0.05 0.05 0.06 0.06 0.04 0.03 0.03 0.03 0.03 0.03 0.03 0.03 0.02 0.01 0.01 0.01 0.02 0.02 0.03 0.04 0.04 0.05 0.06
0.01 0.01 0.02 0.02 0.02 0.03 0.03 0.04 0.04 0.04 0.04 0.05 0.05 0.05 0.05 0.05 0.05 0.05 0.05 0.03 0.03 0.02 0.02 0.02 0.03 0.02 0.02 0.02 0.01 0.01 0.01 0.01 0.02 0.04 0.05 0.06 0.06 0.07
0.02 0.02 0.01 0.01 0.01 0.01 0.02 0.03 0.03 0.04 0.05 0.05 0.06 0.05 0.05 0.05 0.05 0.04 0.03 0.03 0.03 0.02 0.02 0.02 0.02 0.02 0.01 0.01 0.01 0.01 0.01 0.01 0.01 0.03 0.04 0.06 0.07 0.07
0.03 0.03 0.02 0.01 0.01 0.01 0.01 0.02 0.02 0.03 0.04 0.05 0.06 0.06 0.05 0.05 0.05 0.05 0.05 0.05 0.05 0.03 0.03 0.03 0.01 0.01 0.01 0.01 0.01 0.00 0.00 0.01 0.01 0.01 0.02 0.03 0.05 0.06
0.03 0.02 0.01 0.01 0.01 0.02 0.02 0.01 0.01 0.02 0.02 0.04 0.05 0.06 0.05 0.05 0.06 0.06 0.06 0.06 0.06 0.04 0.04 0.04 0.03 0.02 0.01 0.01 0.01 0.00 0.00 0.01 0.01 0.02 0.02 0.03 0.03 0.04
0.01 0.01 0.02 0.02 0.01 0.02 0.03 0.03 0.03 0.02 0.03 0.03 0.05 0.05 0.04 0.05 0.05 0.07 0.08 0.06 0.05 0.04 0.03 0.04 0.03 0.03 0.02 0.01 0.01 0.00 0.00 0.00 0.01 0.01 0.01 0.02 0.02 0.02
0.01 0.01 0.01 0.01 0.01 0.01 0.04 0.04 0.04 0.04 0.03 0.03 0.03 0.03 0.03 0.03 0.04 0.06 0.08 0.08 0.07 0.06 0.04 0.04 0.05 0.04 0.03 0.02 0.01 0.01 0.01 0.01 0.01 0.01 0.01 0.01 0.01 0.01
0.01 0.01 0.01 0.00 0.01 0.01 0.04 0.04 0.04 0.04 0.04 0.03 0.04 0.03 0.02 0.02 0.03 0.04 0.07 0.08 0.07 0.06 0.04 0.03 0.03 0.05 0.05 0.03 0.02 0.02 0.01 0.01 0.01 0.01 0.01 0.01 0.01 0.01
0.01 0.01 0.01 0.01 0.01 0.01 0.02 0.03 0.02 0.03 0.04 0.04 0.05 0.05 0.04 0.04 0.04 0.04 0.05 0.06 0.06 0.05 0.02 0.02 0.03 0.03 0.04 0.03 0.02 0.03 0.03 0.02 0.01 0.01 0.01 0.01 0.01 0.01
0.02 0.02 0.02 0.02 0.02 0.02 0.02 0.02 0.02 0.02 0.04 0.04 0.04 0.04 0.04 0.03 0.03 0.02 0.03 0.04 0.03 0.03 0.03 0.03 0.03 0.03 0.03 0.02 0.02 0.02 0.03 0.02 0.01 0.02 0.02 0.02 0.02 0.01
0.01 0.02 0.01 0.01 0.02 0.02 0.02 0.03 0.02 0.02 0.03 0.03 0.04 0.03 0.03 0.03 0.02 0.03 0.03 0.03 0.03 0.03 0.02 0.01 0.02 0.02 0.03 0.03 0.02 0.03 0.03 0.03 0.02 0.01 0.01 0.01 0.02 0.02
0.01 0.02 0.02 0.02 0.02 0.02 0.01 0.02 0.02 0.02 0.03 0.02 0.02 0.02 0.03 0.03 0.03 0.03 0.03 0.04 0.04 0.04 0.02 0.01 0.01 0.01 0.01 0.02 0.03 0.03 0.03 0.03 0.02 0.02 0.02 0.02 0.02 0.02
0.01 0.02 0.02 0.02 0.02 0.02 0.02 0.01 0.01 0.02 0.02 0.02 0.02 0.02 0.02 0.03 0.03 0.03 0.04 0.04 0.03 0.02 0.01 0.00 0.00 0.00 0.01 0.01 0.02 0.03 0.03 0.03 0.02 0.02 0.03 0.03 0.02 0.02
0.01 0.01 0.01 0.02 0.02 0.02 0.02 0.02 0.01 0.01 0.02 0.02 0.02 0.02 0.03 0.03 0.03 0.03 0.04 0.04 0.03 0.02 0.00 0.00 0.00 0.00 0.01 0.00 0.01 0.01 0.01 0.02 0.01 0.01 0.02 0.03 0.03 0.02
0.01 0.01 0.01 0.01 0.01 0.02 0.02 0.02 0.02 0.02 0.02 0.02 0.03 0.03 0.03 0.02 0.02 0.02 0.03 0.03 0.02 0.01 0.01 0.00 0.00 0.01 0.01 0.01 0.00 0.00 0.00 0.00 0.01 0.01 0.01 0.02 0.02 0.02
0.01 0.01 0.01 0.01 0.01 0.01 0.01 0.01 0.01 0.02 0.02 0.02 0.02 0.02 0.02 0.01 0.01 0.01 0.01 0.01 0.01 0.01 0.01 0.01 0.00 0.01 0.01 0.01 0.01 0.00 0.00 0.00 0.01 0.01 0.01 0.02 0.01 0.01
0.01 0.02 0.02 0.02 0.01 0.01 0.01 0.01 0.01 0.01 0.01 0.01 0.01 0.01 0.01 0.01 0.00 0.00 0.00 0.00 0.01 0.01 0.01 0.01 0.01 0.01 0.01 0.01 0.01 0.00 0.00 0.00 0.00 0.01 0.01 0.01 0.01 0.01
0.02 0.02 0.02 0.02 0.01 0.01 0.01 0.01 0.01 0.01 0.01 0.01 0.01 0.00 0.00 0.00 0.00 0.00 0.00 0.00 0.00 0.01 0.01 0.01 0.01 0.01 0.01 0.01 0.01 0.01 0.00 0.00 0.00 0.00 0.01 0.01 0.01 0.01
0.01 0.01 0.01 0.01 0.01 0.01 0.01 0.01 0.01 0.01 0.00 0.00 0.00 0.00 0.00 0.00 0.00 0.00 0.00 0.00 0.00 0.00 0.01 0.01 0.02 0.01 0.01 0.01 0.01 0.01 0.01 0.00 0.00 0.00 0.00 0.01 0.01 0.01
MSLP
1015.90 1015.91 1015.97 1016.07 1016.19 1016.34 1016.50 1016.70 1016.91 1017.17 1017.45 1017.75 1018.05 1018.33 1018.56 1018.73 1018.85 1018.93 1018.98 1019.06 1019.21 1019.45 1019.82 1020.31 1020.92 1021.62 1022.36 1023.09 1023.77 1024.36 1024.83 1025.20 1025.45 1025.63 1025.74 1025.81 1025.88 1025.94
1015.62 1015.62 1015.67 1015.75 1015.87 1016.03 1016.22 1016.45 1016.73 1017.06 1017.44 1017.85 1018.28 1018.69 1019.07 1019.39 1019.64 1019.84 1020.00 1020.16 1020.35 1020.60 1020.94 1021.38 1021.90 1022.48 1023.10 1023.69 1024.24 1024.71 1025.08 1025.35 1025.54 1025.65 1025.72 1025.77 1025.80 1025.84
1015.39 1015.39 1015.44 1015.53 1015.65 1015.82 1016.03 1016.30 1016.64 1017.04 1017.51 1018.03 1018.57 1019.11 1019.61 1020.06 1020.43 1020.74 1020.99 1021.22 1021.44 1021.69 1021.99 1022.36 1022.78 1023.25 1023.72 1024.19 1024.60 1024.95 1025.22 1025.41 1025.54 1025.61 1025.65 1025.67 1025.68 1025.69
1015.29 1015.31 1015.37 1015.47 1015.61 1015.79 1016.03 1016.34 1016.72 1017.18 1017.72 1018.31 1018.94 1019.57 1020.17 1020.71 1021.17 1021.55 1021.86 1022.12 1022.35 1022.58 1022.83 1023.12 1023.44 1023.78 1024.13 1024.47 1024.77 1025.02 1025.20 1025.34 1025.42 1025.47 1025.49 1025.50 1025.50 1025.50
1015.36 1015.40 1015.49 1015.61 1015.77 1015.98 1016.25 1016.58 1017.00 1017.50 1018.07 1018.71 1019.39 1020.07 1020.71 1021.29 1021.79 1022.20 1022.53 1022.79 1022.99 1023.18 1023.37 1023.57 1023.78 1024.02 1024.25 1024.48 1024.69 1024.86 1024.99 1025.08 1025.15 1025.19 1025.22 1025.23 1025.24 1025.24
1015.60 1015.67 1015.79 1015.94 1016.13 1016.36 1016.65 1017.00 1017.44 1017.95 1018.54 1019.19 1019.87 1020.55 1021.19 1021.77 1022.26 1022.65 1022.95 1023.17 1023.33 1023.45 1023.56 1023.67 1023.79 1023.92 1024.07 1024.21 1024.34 1024.46 1024.56 1024.64 1024.71 1024.76 1024.80 1024.84 1024.86 1024.87
1015.97 1016.07 1016.22 1016.39 1016.61 1016.86 1017.16 1017.53 1017.96 1018.47 1019.05 1019.67 1020.32 1020.96 1021.56 1022.09 1022.53 1022.87 1023.11 1023.27 1023.36 1023.40 1023.43 1023.46 1023.49 1023.55 1023.61 1023.69 1023.77 1023.86 1023.94 1024.01 1024.09 1024.16 1024.23 1024.28 1024.32 1024.34
1016.43 1016.55 1016.71 1016.91 1017.14 1017.40 1017.71 1018.06 1018.48 1018.97 1019.50 1020.08 1020.67 1021.25 1021.79 1022.24 1022.61 1022.88 1023.05 1023.13 1023.15 1023.12 1023.07 1023.02 1022.99 1022.97 1022.98 1023.00 1023.04 1023.10 1023.17 1023.24 1023.32 1023.41 1023.49 1023.56 1023.62 1023.64
1016.91 1017.04 1017.21 1017.41 1017.64 1017.90 1018.20 1018.54 1018.92 1019.36 1019.85 1020.36 1020.89 1021.39 1021.84 1022.22 1022.51 1022.71 1022.81 1022.82 1022.78 1022.69 1022.58 1022.47 1022.38 1022.31 1022.27 1022.25 1022.25 1022.28 1022.33 1022.39 1022.47 1022.55 1022.63 1022.70 1022.75 1022.77
1017.40 1017.52 1017.69 1017.88 1018.10 1018.33 1018.60 1018.91 1019.25 1019.63 1020.05 1020.49 1020.94 1021.36 1021.74 1022.04 1022.27 1022.40 1022.45 1022.42 1022.33 1022.21 1022.06 1021.92 1021.79 1021.67 1021.59 1021.53 1021.50 1021.50 1021.51 1021.54 1021.59 1021.65 1021.70 1021.75 1021.78 1021.78
1017.90 1018.00 1018.14 1018.31 1018.49 1018.70 1018.92 1019.18 1019.46 1019.78 1020.13 1020.50 1020.86 1021.21 1021.52 1021.76 1021.94 1022.03 1022.05 1022.00 1021.90 1021.75 1021.60 1021.44 1021.28 1021.15 1021.03 1020.94 1020.87 1020.82 1020.78 1020.77 1020.77 1020.77 1020.79 1020.79 1020.78 1020.75
1018.42 1018.49 1018.60 1018.72 1018.86 1019.02 1019.19 1019.39 1019.61 1019.85 1020.13 1020.42 1020.71 1020.99 1021.24 1021.44 1021.58 1021.65 1021.66 1021.60 1021.51 1021.37 1021.22 1021.06 1020.91 1020.76 1020.62 1020.49 1020.38 1020.28 1020.19 1020.11 1020.05 1019.99 1019.94 1019.89 1019.82 1019.74
1018.99 1019.01 1019.07 1019.14 1019.23 1019.33 1019.44 1019.57 1019.72 1019.90 1020.10 1020.32 1020.55 1020.76 1020.96 1021.12 1021.23 1021.29 1021.30 1021.26 1021.18 1021.07 1020.94 1020.79 1020.64 1020.49 1020.33 1020.18 1020.03 1019.88 1019.74 1019.59 1019.46 1019.33 1019.20 1019.08 1018.95 1018.80
1019.56 1019.54 1019.53 1019.55 1019.58 1019.62 1019.68 1019.75 1019.84 1019.96 1020.09 1020.24 1020.41 1020.57 1020.71 1020.83 1020.92 1020.97 1020.98 1020.96 1020.90 1020.81 1020.70 1020.58 1020.44 1020.29 1020.12 1019.95 1019.77 1019.57 1019.37 1019.17 1018.97 1018.77 1018.56 1018.36 1018.16 1017.95
1020.10 1020.01 1019.95 1019.90 1019.88 1019.87 1019.88 1019.90 1019.95 1020.01 1020.10 1020.19 1020.30 1020.41 1020.51 1020.59 1020.66 1020.69 1020.70 1020.67 1020.63 1020.56 1020.47 1020.36 1020.23 1020.08 1019.91 1019.72 1019.51 1019.28 1019.04 1018.78 1018.51 1018.24 1017.97 1017.69 1017.41 1017.13
1020.51 1020.35 1020.23 1020.13 1020.06 1020.02 1020.00 1019.99 1020.01 1020.04 1020.10 1020.15 1020.22 1020.29 1020.34 1020.39 1020.42 1020.42 1020.41 1020.38 1020.33 1020.26 1020.18 1020.07 1019.95 1019.80 1019.63 1019.42 1019.19 1018.93 1018.64 1018.33 1018.01 1017.67 1017.33 1016.99 1016.64 1016.28
1020.70 1020.48 1020.30 1020.17 1020.07 1020.01 1019.97 1019.97 1019.98 1020.01 1020.05 1020.09 1020.13 1020.16 1020.18 1020.18 1020.17 1020.15 1020.11 1020.05 1019.98 1019.90 1019.81 1019.69 1019.56 1019.40 1019.21 1018.99 1018.73 1018.44 1018.12 1017.77 1017.39 1017.00 1016.60 1016.19 1015.77 1015.34
1020.62 1020.35 1020.13 1019.97 1019.86 1019.80 1019.78 1019.79 1019.82 1019.87 1019.91 1019.95 1019.98 1019.99 1019.99 1019.95 1019.91 1019.84 1019.76 1019.67 1019.57 1019.46 1019.34 1019.21 1019.05 1018.87 1018.66 1018.41 1018.12 1017.79 1017.43 1017.03 1016.61 1016.17 1015.71 1015.24 1014.76 1014.28
1020.28 1019.97 1019.73 1019.56 1019.45 1019.41 1019.42 1019.47 1019.54 1019.61 1019.69 1019.74 1019.77 1019.78 1019.75 1019.69 1019.61 1019.51 1019.39 1019.26 1019.12 1018.97 1018.81 1018.64 1018.45 1018.23 1017.98 1017.69 1017.37 1017.00 1016.60 1016.16 1015.69 1015.20 1014.70 1014.18 1013.65 1013.12
1019.75 1019.43 1019.18 1019.02 1018.93 1018.92 1018.97 1019.05 1019.17 1019.28 1019.38 1019.46 1019.50 1019.50 1019.47 1019.39 1019.28 1019.14 1018.99 1018.82 1018.64 1018.45 1018.25 1018.03 1017.80 1017.53 1017.24 1016.91 1016.53 1016.12 1015.67 1015.19 1014.69 1014.16 1013.62 1013.07 1012.51 1011.95
1019.13 1018.82 1018.59 1018.44 1018.38 1018.41 1018.49 1018.62 1018.76 1018.91 1019.04 1019.14 1019.19 1019.19 1019.15 1019.06 1018.93 1018.77 1018.59 1018.38 1018.17 1017.94 1017.70 1017.43 1017.15 1016.84 1016.49 1016.11 1015.69 1015.24 1014.75 1014.23 1013.70 1013.15 1012.59 1012.03 1011.46 1010.90
1018.53 1018.25 1018.05 1017.94 1017.91 1017.96 1018.07 1018.22 1018.39 1018.55 1018.69 1018.80 1018.85 1018.85 1018.80 1018.70 1018.56 1018.39 1018.19 1017.96 1017.72 1017.46 1017.18 1016.88 1016.55 1016.19 1015.80 1015.37 1014.91 1014.42 1013.91 1013.38 1012.83 1012.28 1011.73 1011.18 1010.63 1010.10
1018.04 1017.81 1017.65 1017.57 1017.57 1017.63 1017.75 1017.91 1018.07 1018.23 1018.37 1018.47 1018.51 1018.50 1018.44 1018.34 1018.19 1018.00 1017.79 1017.55 1017.30 1017.02 1016.71 1016.38 1016.02 1015.63 1015.20 1014.74 1014.25 1013.75 1013.22 1012.69 1012.16 1011.63 1011.12 1010.61 1010.12 1009.63
Thickness
5609 5610 5611 5612 5614 5615 5615 5615 5613 5612 5613 5615 5616 5617 5617 5618 5618 5619 5620 5621 5622 5623 5624 5625 5626 5625 5625 5625 5624 5622 5622 5620 5619 5617 5615 5613 5611 5608
5601 5602 5603 5604 5606 5607 5608 5609 5609 5608 5606 5607 5607 5609 5609 5610 5609 5610 5610 5611 5612 5612 5613 5614 5614 5615 5614 5613 5613 5612 5611 5610 5608 5607 5605 5604 5602 5599
5592 5593 5594 5596 5597 5599 5600 5601 5602 5602 5599 5599 5599 5601 5601 5602 5601 5601 5602 5602 5602 5603 5604 5604 5604 5604 5604 5604 5603 5602 5601 5600 5599 5597 5596 5594 5592 5591
5583 5585 5586 5588 5589 5590 5592 5593 5594 5595 5594 5592 5591 5592 5593 5594 5594 5594 5594 5594 5594 5594 5595 5595 5595 5595 5594 5594 5593 5593 5592 5591 5590 5589 5587 5586 5583 5581
5576 5576 5577 5579 5580 5582 5584 5585 5586 5587 5587 5586 5586 5586 5586 5587 5587 5586 5586 5587 5587 5586 5586 5586 5586 5586 5585 5585 5584 5584 5583 5582 5582 5580 5579 5577 5576 5575
5568 5568 5569 5571 5572 5574 5575 5576 5578 5578 5579 5580 5580 5580 5580 5580 5580 5579 5578 5579 5580 5580 5579 5579 5578 5578 5578 5577 5576 5576 5575 5574 5573 5572 5571 5569 5568 5567
5561 5561 5562 5563 5564 5566 5567 5568 5570 5571 5572 5573 5573 5573 5573 5573 5573 5573 5573 5573 5573 5574 5573 5572 5572 5571 5571 5570 5569 5569 5569 5568 5567 5566 5565 5564 5563 5562
5555 5555 5556 5557 5558 5559 5560 5561 5563 5564 5565 5566 5567 5567 5567 5568 5569 5569 5568 5568 5567 5569 5569 5568 5568 5566 5566 5565 5565 5564 5563 5562 5562 5561 5560 5559 5558 5557
5549 5549 5551 5551 5552 5553 5555 5556 5557 5558 5559 5560 5561 5562 5563 5564 5564 5564 5565 5565 5566 5567 5565 5564 5564 5562 5562 5562 5561 5560 5559 5559 5558 5557 5556 5555 5554 5553
5544 5544 5544 5545 5546 5548 5550 5552 5552 5554 5556 5557 5558 5559 5560 5560 5561 5561 5561 5562 5563 5563 5562 5560 5561 5560 5561 5560 5559 5558 5557 5556 5555 5554 5553 5552 5551 5550
5540 5540 5540 5541 5542 5544 5546 5547 5548 5549 5552 5554 5556 5556 5557 5557 5557 5557 5558 5558 5557 5558 5559 5558 5558 5559 5559 5558 5558 5557 5557 5555 5554 5553 5552 5551 5550 5548
5538 5538 5537 5538 5539 5540 5542 5543 5544 5546 5549 5551 5553 5554 5555 5555 5556 5555 5556 5556 5555 5555 5557 5557 5557 5556 5556 5557 5557 5556 5555 5554 5553 5552 5551 5550 5549 5545
5537 5537 5536 5536 5537 5538 5539 5541 5541 5543 5547 5549 5551 5553 5554 5555 5555 5555 5556 5556 5556 5555 5557 5556 5556 5556 5555 5555 5556 5556 5555 5554 5553 5552 5551 5550 5549 5545
5535 5535 5535 5535 5536 5537 5539 5540 5542 5543 5546 5549 5551 5552 5553 5554 5555 5556 5557 5557 5558 5558 5558 5557 5556 5556 5554 5554 5555 5556 5556 5556 5555 5554 5553 5553 5550 5548
5534 5535 5535 5536 5537 5538 5540 5542 5543 5545 5547 5549 5550 5552 5554 5555 5556 5557 5558 5558 5559 5560 5560 5559 5559 5558 5556 5555 5555 5556 5555 5556 5556 5555 5554 5553 5551 5549
5535 5537 5538 5539 5540 5541 5543 5545 5547 5549 5550 5551 5553 5554 5556 5557 5557 5558 5558 5559 5559 5560 5562 5562 5561 5559 5557 5557 5556 5555 5556 5555 5556 5556 5555 5554 5552 5551
5536 5540 5542 5544 5546 5548 5550 5551 5553 5554 5554 5555 5556 5557 5557 5559 5560 5561 5561 5561 5560 5561 5562 5563 5563 5561 5560 5558 5556 5556 5557 5556 5556 5556 5554 5552 5552 5552
5539 5543 5547 5550 5551 5553 5555 5556 5557 5558 5558 5558 5559 5559 5560 5561 5562 5563 5563 5563 5562 5563 5563 5563 5563 5561 5559 5560 5559 5557 5557 5556 5556 5555 5554 5551 5551 5553
5545 5550 5553 5556 5557 5559 5560 5561 5561 5562 5562 5562 5563 5563 5564 5564 5565 5565 5565 5565 5565 5565 5565 5565 5563 5560 5556 5556 5560 5559 5556 5556 5555 5554 5553 5551 5550 5552
5554 5557 5560 5562 5563 5564 5565 5566 5566 5566 5566 5566 5566 5567 5567 5567 5567 5567 5567 5567 5567 5566 5566 5565 5564 5562 5558 5557 5558 5559 5559 5556 5554 5553 5553 5553 5552 5552
5565 5567 5568 5569 5569 5570 5570 5571 5571 5571 5571 5570 5570 5570 5570 5569 5568 5569 5569 5569 5567 5566 5565 5565 5565 5565 5563 5561 5558 5559 5560 5559 5557 5553 5552 5550 5549 5547
5572 5574 5575 5575 5575 5575 5575 5575 5575 5575 5574 5574 5573 5573 5572 5572 5571 5571 5570 5569 5568 5568 5567 5567 5567 5564 5561 5558 5557 5558 5559 5560 5558 5556 5552 5549 5544 5541
5579 5579 5580 5580 5581 5581 5581 5580 5580 5579 5579 5578 5577 5577 5576 5574 5573 5572 5571 5571 5570 5568 5567 5566 5564 5562 5560 5558 5557 5556 5557 5556 5555 5553 5550 5549 5545 5542